AXM11 WMKK-VOMM

Flight info

Callsign AXM11
Flight time 3h 23m
Altitude 36000
Route PUGER1A PUGER P574 GIRNA V6 AVMOR AVMOR2F
Aircraft A320/M-SDE3FGHIRWY/LB1

Departure

Time 2026-04-24 03:50
Airport Kuala Lumpur International Airport (WMKK)

Arrival

Time 2026-04-24 07:13
Airport Chennai International Airport (VOMM)
Time Latitude Longitude Altitude Speed Heading
2026-04-24 03:25 2.74726 101.71487 73 ft 0 kts 236°
2026-04-24 03:35 2.74726 101.71488 73 ft 0 kts 236°
2026-04-24 03:42 2.74735 101.71503 69 ft 4 kts 248°
2026-04-24 03:43 2.74741 101.71529 62 ft 4 kts 270°
2026-04-24 03:43 2.74738 101.71555 62 ft 4 kts 291°
2026-04-24 03:43 2.74725 101.71578 62 ft 4 kts 313°
2026-04-24 03:43 2.74714 101.71587 62 ft 0 kts 326°
2026-04-24 03:46 2.74715 101.71587 62 ft 1 kts 326°
2026-04-24 03:46 2.74736 101.71573 66 ft 7 kts 332°
2026-04-24 03:46 2.74773 101.71582 68 ft 4 kts 34°
2026-04-24 03:47 2.74788 101.71602 73 ft 3 kts 52°
2026-04-24 03:47 2.74797 101.71615 63 ft 2 kts 57°
2026-04-24 03:47 2.74831 101.71666 73 ft 12 kts 56°
2026-04-24 03:47 2.74873 101.71729 69 ft 10 kts 56°
2026-04-24 03:48 2.74905 101.71777 70 ft 6 kts 56°
2026-04-24 03:48 2.74932 101.71816 74 ft 13 kts 56°
2026-04-24 03:48 2.74987 101.71905 76 ft 15 kts 58°
2026-04-24 03:48 2.75045 101.71989 77 ft 14 kts 53°
2026-04-24 03:49 2.75123 101.72012 68 ft 12 kts 337°
2026-04-24 03:49 2.75204 101.71960 73 ft 27 kts 326°
2026-04-24 03:49 2.75599 101.71695 71 ft 108 kts 326°
2026-04-24 03:49 2.76421 101.71145 64 ft 174 kts 326°
2026-04-24 03:50 2.77510 101.70424 585 ft 190 kts 326°
2026-04-24 03:50 2.78672 101.69647 1115 ft 211 kts 326°
2026-04-24 03:50 2.80014 101.68888 1377 ft 233 kts 342°
2026-04-24 03:50 2.81640 101.68388 1672 ft 256 kts 342°
2026-04-24 03:51 2.83366 101.67784 2256 ft 266 kts 340°
2026-04-24 03:51 2.85113 101.67137 3028 ft 270 kts 341°
2026-04-24 03:51 2.86887 101.66475 3798 ft 273 kts 341°
2026-04-24 03:51 2.88678 101.65811 4595 ft 276 kts 341°
2026-04-24 03:52 2.90490 101.65144 5341 ft 279 kts 341°
2026-04-24 03:52 2.92324 101.64474 6055 ft 282 kts 341°
2026-04-24 03:52 2.94189 101.63813 6727 ft 286 kts 340°
2026-04-24 03:52 2.95954 101.62862 7368 ft 292 kts 323°
2026-04-24 03:53 2.97419 101.61445 8003 ft 296 kts 307°
2026-04-24 03:53 2.98648 101.59776 8650 ft 300 kts 306°
2026-04-24 03:53 2.99888 101.58080 9338 ft 302 kts 306°
2026-04-24 03:53 3.01131 101.56381 10010 ft 304 kts 305°
2026-04-24 03:54 3.02393 101.54658 10480 ft 314 kts 306°
2026-04-24 03:54 3.03728 101.52835 10599 ft 335 kts 306°
2026-04-24 03:54 3.05144 101.50899 10788 ft 353 kts 306°
2026-04-24 03:54 3.06608 101.48899 11261 ft 359 kts 306°
2026-04-24 03:55 3.08095 101.46874 11811 ft 363 kts 306°
2026-04-24 03:55 3.09599 101.44826 12364 ft 367 kts 306°
2026-04-24 03:55 3.11117 101.42761 12914 ft 371 kts 306°
2026-04-24 03:55 3.12655 101.40670 13465 ft 374 kts 306°
2026-04-24 03:56 3.14204 101.38565 13961 ft 378 kts 306°
2026-04-24 03:56 3.15645 101.36354 14428 ft 381 kts 297°
2026-04-24 03:56 3.16646 101.33898 14885 ft 383 kts 285°
2026-04-24 03:56 3.17204 101.31285 15345 ft 386 kts 279°
2026-04-24 03:57 3.17688 101.28630 15812 ft 389 kts 279°
2026-04-24 03:57 3.18184 101.25958 16254 ft 393 kts 280°
2026-04-24 03:57 3.18689 101.23257 16701 ft 396 kts 280°
2026-04-24 03:57 3.19197 101.20539 17141 ft 399 kts 280°
2026-04-24 03:58 3.19707 101.17801 17579 ft 402 kts 280°
2026-04-24 03:58 3.20221 101.15040 18015 ft 405 kts 280°
2026-04-24 03:58 3.20733 101.12289 18405 ft 408 kts 279°
2026-04-24 03:58 3.21257 101.09454 18797 ft 411 kts 279°
2026-04-24 03:59 3.21771 101.06670 19195 ft 413 kts 279°
2026-04-24 03:59 3.22300 101.03804 19606 ft 415 kts 279°
2026-04-24 03:59 3.22826 101.00956 20019 ft 417 kts 279°
2026-04-24 03:59 3.23354 100.98103 20426 ft 419 kts 280°
2026-04-24 04:00 3.23943 100.95240 20824 ft 421 kts 282°
2026-04-24 04:00 3.24605 100.92415 21220 ft 423 kts 283°
2026-04-24 04:00 3.25324 100.89553 21621 ft 425 kts 283°
2026-04-24 04:00 3.26071 100.86638 22006 ft 428 kts 283°
2026-04-24 04:01 3.26805 100.83748 22399 ft 430 kts 283°
2026-04-24 04:01 3.27520 100.80882 22765 ft 432 kts 283°
2026-04-24 04:01 3.28236 100.77959 23126 ft 434 kts 282°
2026-04-24 04:01 3.28948 100.75019 23480 ft 436 kts 282°
2026-04-24 04:02 3.29665 100.72031 23773 ft 437 kts 282°
2026-04-24 04:02 3.30364 100.69100 24059 ft 439 kts 282°
2026-04-24 04:02 3.31075 100.66125 24348 ft 441 kts 282°
2026-04-24 04:02 3.31800 100.63098 24639 ft 442 kts 282°
2026-04-24 04:03 3.32511 100.60141 24910 ft 444 kts 282°
2026-04-24 04:03 3.33238 100.57138 25182 ft 445 kts 282°
2026-04-24 04:03 3.33967 100.54121 25452 ft 447 kts 282°
2026-04-24 04:03 3.34697 100.51094 25716 ft 448 kts 282°
2026-04-24 04:04 3.35431 100.48051 25976 ft 450 kts 282°
2026-04-24 04:04 3.36166 100.45005 26233 ft 451 kts 282°
2026-04-24 04:04 3.36903 100.41949 26477 ft 453 kts 282°
2026-04-24 04:04 3.37644 100.38880 26725 ft 454 kts 282°
2026-04-24 04:05 3.38389 100.35800 26962 ft 456 kts 282°
2026-04-24 04:05 3.39134 100.32710 27206 ft 457 kts 282°
2026-04-24 04:05 3.40003 100.29646 27439 ft 460 kts 289°
2026-04-24 04:05 3.41315 100.26725 27670 ft 462 kts 298°
2026-04-24 04:06 3.42870 100.23898 27896 ft 464 kts 298°
2026-04-24 04:06 3.44431 100.21068 28117 ft 465 kts 298°
2026-04-24 04:06 3.45992 100.18233 28344 ft 467 kts 298°
2026-04-24 04:06 3.47559 100.15378 28553 ft 468 kts 298°
2026-04-24 04:07 3.49125 100.12519 28761 ft 470 kts 298°
2026-04-24 04:07 3.50696 100.09648 28964 ft 471 kts 298°
2026-04-24 04:07 3.52274 100.06766 29165 ft 472 kts 298°
2026-04-24 04:07 3.53853 100.03881 29363 ft 474 kts 298°
2026-04-24 04:08 3.55441 100.00983 29545 ft 475 kts 298°
2026-04-24 04:08 3.57030 99.98079 29734 ft 476 kts 298°
2026-04-24 04:08 3.58625 99.95170 29911 ft 478 kts 298°
2026-04-24 04:08 3.60226 99.92250 30068 ft 479 kts 298°
2026-04-24 04:09 3.61825 99.89332 30264 ft 478 kts 298°
2026-04-24 04:09 3.63423 99.86418 30492 ft 477 kts 298°
2026-04-24 04:09 3.65019 99.83507 30716 ft 476 kts 298°
2026-04-24 04:09 3.66611 99.80603 30945 ft 475 kts 297°
2026-04-24 04:10 3.68201 99.77705 31181 ft 474 kts 297°
2026-04-24 04:10 3.69786 99.74815 31409 ft 473 kts 297°
2026-04-24 04:10 3.71367 99.71927 31629 ft 472 kts 297°
2026-04-24 04:11 3.74491 99.66203 32063 ft 471 kts 297°
2026-04-24 04:11 3.76081 99.63290 32290 ft 471 kts 298°
2026-04-24 04:11 3.77655 99.60412 32496 ft 470 kts 298°
2026-04-24 04:11 3.79206 99.57579 32702 ft 470 kts 298°
2026-04-24 04:12 3.80799 99.54673 32908 ft 470 kts 298°
2026-04-24 04:12 3.82353 99.51845 33135 ft 469 kts 298°
2026-04-24 04:12 3.83924 99.48981 33354 ft 469 kts 298°
2026-04-24 04:12 3.85489 99.46124 33575 ft 468 kts 298°
2026-04-24 04:13 3.87053 99.43265 33790 ft 468 kts 298°
2026-04-24 04:13 3.88615 99.40405 33987 ft 468 kts 298°
2026-04-24 04:13 3.90174 99.37547 34165 ft 467 kts 298°
2026-04-24 04:13 3.91730 99.34696 34339 ft 467 kts 298°
2026-04-24 04:14 3.93293 99.31842 34504 ft 467 kts 298°
2026-04-24 04:14 3.94852 99.28997 34674 ft 466 kts 298°
2026-04-24 04:14 3.96410 99.26152 34836 ft 466 kts 298°
2026-04-24 04:14 3.97968 99.23302 34995 ft 466 kts 298°
2026-04-24 04:15 3.99522 99.20458 35152 ft 465 kts 298°
2026-04-24 04:15 4.01073 99.17616 35305 ft 465 kts 298°
2026-04-24 04:15 4.02622 99.14776 35453 ft 465 kts 298°
2026-04-24 04:15 4.04171 99.11936 35597 ft 464 kts 298°
2026-04-24 04:16 4.05722 99.09095 35737 ft 464 kts 298°
2026-04-24 04:16 4.07269 99.06269 35865 ft 464 kts 298°
2026-04-24 04:16 4.10366 99.00612 35888 ft 462 kts 298°
2026-04-24 04:17 4.13447 98.94963 35893 ft 462 kts 298°
2026-04-24 04:17 4.16526 98.89320 35886 ft 462 kts 298°
2026-04-24 04:18 4.19610 98.83670 35891 ft 462 kts 298°
2026-04-24 04:18 4.22693 98.78024 35883 ft 462 kts 298°
2026-04-24 04:19 4.25754 98.72417 35881 ft 462 kts 298°
2026-04-24 04:19 4.28835 98.66773 35894 ft 461 kts 298°
2026-04-24 04:20 4.31915 98.61135 35882 ft 461 kts 298°
2026-04-24 04:20 4.34992 98.55499 35894 ft 461 kts 298°
2026-04-24 04:21 4.38063 98.49862 35895 ft 461 kts 298°
2026-04-24 04:21 4.41133 98.44234 35888 ft 461 kts 298°
2026-04-24 04:22 4.44202 98.38601 35882 ft 460 kts 298°
2026-04-24 04:22 4.47265 98.32971 35881 ft 460 kts 298°
2026-04-24 04:23 4.50328 98.27343 35882 ft 460 kts 298°
2026-04-24 04:23 4.53390 98.21711 35887 ft 460 kts 298°
2026-04-24 04:24 4.56454 98.16087 35885 ft 460 kts 298°
2026-04-24 04:24 4.59520 98.10458 35895 ft 460 kts 298°
2026-04-24 04:25 4.62580 98.04829 35896 ft 460 kts 298°
2026-04-24 04:25 4.65644 97.99192 35901 ft 460 kts 298°
2026-04-24 04:26 4.68712 97.93557 35896 ft 460 kts 298°
2026-04-24 04:26 4.71774 97.87920 35900 ft 460 kts 298°
2026-04-24 04:27 4.74838 97.82281 35898 ft 461 kts 298°
2026-04-24 04:27 4.77902 97.76643 35902 ft 460 kts 298°
2026-04-24 04:28 4.80964 97.71004 35906 ft 460 kts 298°
2026-04-24 04:28 4.84028 97.65378 35899 ft 459 kts 298°
2026-04-24 04:29 4.87087 97.59757 35890 ft 459 kts 298°
2026-04-24 04:29 4.89625 97.55078 35907 ft 459 kts 298°
2026-04-24 04:30 4.92680 97.49457 35904 ft 459 kts 298°
2026-04-24 04:30 4.95732 97.43832 35902 ft 459 kts 298°
2026-04-24 04:31 4.99279 97.37300 35894 ft 459 kts 298°
2026-04-24 04:31 5.01834 97.32588 35897 ft 459 kts 298°
2026-04-24 04:32 5.04874 97.26966 35905 ft 459 kts 298°
2026-04-24 04:32 5.07923 97.21354 35903 ft 458 kts 298°
2026-04-24 04:33 5.10969 97.15740 35902 ft 458 kts 298°
2026-04-24 04:33 5.14009 97.10116 35908 ft 458 kts 298°
2026-04-24 04:34 5.17059 97.04503 35894 ft 458 kts 298°
2026-04-24 04:34 5.20104 96.98884 35894 ft 458 kts 298°
2026-04-24 04:35 5.23142 96.93265 35896 ft 458 kts 298°
2026-04-24 04:35 5.26185 96.87645 35896 ft 458 kts 298°
2026-04-24 04:36 5.29229 96.82030 35906 ft 458 kts 298°
2026-04-24 04:36 5.32268 96.76419 35899 ft 458 kts 298°
2026-04-24 04:37 5.35306 96.70810 35896 ft 457 kts 298°
2026-04-24 04:37 5.38339 96.65197 35897 ft 457 kts 298°
2026-04-24 04:38 5.41369 96.59587 35893 ft 457 kts 298°
2026-04-24 04:38 5.44384 96.54011 35892 ft 457 kts 298°
2026-04-24 04:39 5.47428 96.48367 35888 ft 457 kts 298°
2026-04-24 04:39 5.50442 96.42794 35889 ft 457 kts 298°
2026-04-24 04:40 5.53489 96.37153 35890 ft 456 kts 298°
2026-04-24 04:40 5.56509 96.31550 35889 ft 456 kts 298°
2026-04-24 04:41 5.59513 96.25990 35889 ft 456 kts 298°
2026-04-24 04:41 5.62535 96.20395 35882 ft 456 kts 298°
2026-04-24 04:42 5.65555 96.14802 35884 ft 456 kts 298°
2026-04-24 04:42 5.68572 96.09209 35882 ft 456 kts 298°
2026-04-24 04:43 5.71593 96.03611 35876 ft 456 kts 298°
2026-04-24 04:43 5.74619 95.98001 35871 ft 457 kts 298°
2026-04-24 04:44 5.77648 95.92381 35865 ft 458 kts 298°
2026-04-24 04:44 5.80669 95.86756 35866 ft 458 kts 298°
2026-04-24 04:45 5.83697 95.81128 35868 ft 458 kts 298°
2026-04-24 04:45 5.86732 95.75504 35867 ft 458 kts 298°
2026-04-24 04:46 5.89768 95.69873 35869 ft 458 kts 298°
2026-04-24 04:46 5.92788 95.64244 35875 ft 458 kts 298°
2026-04-24 04:47 5.95809 95.58613 35875 ft 458 kts 298°
2026-04-24 04:47 5.98835 95.52987 35875 ft 458 kts 298°
2026-04-24 04:48 6.01882 95.47367 35871 ft 458 kts 299°
2026-04-24 04:48 6.04982 95.41782 35871 ft 458 kts 300°
2026-04-24 04:49 6.08087 95.36196 35866 ft 458 kts 299°
2026-04-24 04:49 6.11181 95.30601 35868 ft 458 kts 299°
2026-04-24 04:50 6.14267 95.24998 35870 ft 458 kts 299°
2026-04-24 04:50 6.17351 95.19393 35868 ft 458 kts 299°
2026-04-24 04:51 6.20439 95.13791 35870 ft 458 kts 300°
2026-04-24 04:51 6.23536 95.08187 35867 ft 459 kts 299°
2026-04-24 04:52 6.26631 95.02579 35871 ft 459 kts 299°
2026-04-24 04:52 6.29737 94.96981 35872 ft 459 kts 300°
2026-04-24 04:53 6.32850 94.91388 35879 ft 458 kts 300°
2026-04-24 04:53 6.35962 94.85800 35881 ft 458 kts 300°
2026-04-24 04:54 6.39054 94.80217 35876 ft 457 kts 300°
2026-04-24 04:54 6.42146 94.74631 35878 ft 457 kts 300°
2026-04-24 04:55 6.45233 94.69046 35879 ft 457 kts 300°
2026-04-24 04:55 6.48325 94.63465 35879 ft 457 kts 300°
2026-04-24 04:56 6.51409 94.57887 35880 ft 456 kts 300°
2026-04-24 04:56 6.54501 94.52307 35872 ft 456 kts 300°
2026-04-24 04:57 6.57581 94.46736 35876 ft 456 kts 300°
2026-04-24 04:57 6.60651 94.41167 35878 ft 455 kts 298°
2026-04-24 04:58 6.63402 94.35424 35876 ft 456 kts 294°
2026-04-24 04:58 6.65900 94.29567 35875 ft 456 kts 294°
2026-04-24 04:59 6.68420 94.23719 35873 ft 456 kts 295°
2026-04-24 04:59 6.71020 94.17906 35869 ft 455 kts 295°
2026-04-24 05:00 6.73648 94.12106 35867 ft 456 kts 295°
2026-04-24 05:00 6.76264 94.06300 35869 ft 456 kts 295°
2026-04-24 05:01 6.78868 94.00488 35870 ft 456 kts 295°
2026-04-24 05:01 6.81469 93.94670 35871 ft 456 kts 295°
2026-04-24 05:02 6.84077 93.88850 35867 ft 456 kts 295°
2026-04-24 05:02 6.86680 93.83033 35865 ft 456 kts 295°
2026-04-24 05:03 6.89287 93.77203 35868 ft 457 kts 295°
2026-04-24 05:03 6.91894 93.71375 35868 ft 457 kts 295°
2026-04-24 05:04 6.94493 93.65547 35869 ft 457 kts 295°
2026-04-24 05:04 6.97092 93.59708 35870 ft 457 kts 295°
2026-04-24 05:05 6.99710 93.53877 35869 ft 457 kts 295°
2026-04-24 05:05 7.02319 93.48041 35869 ft 457 kts 295°
2026-04-24 05:06 7.04919 93.42206 35871 ft 457 kts 295°
2026-04-24 05:06 7.07527 93.36367 35871 ft 457 kts 295°
2026-04-24 05:07 7.10133 93.30532 35875 ft 457 kts 295°
2026-04-24 05:07 7.12733 93.24693 35876 ft 457 kts 295°
2026-04-24 05:08 7.15334 93.18857 35876 ft 457 kts 295°
2026-04-24 05:08 7.17946 93.13016 35876 ft 457 kts 295°
2026-04-24 05:09 7.20545 93.07180 35875 ft 457 kts 295°
2026-04-24 05:09 7.23133 93.01327 35875 ft 457 kts 295°
2026-04-24 05:10 7.25734 92.95480 35876 ft 458 kts 295°
2026-04-24 05:10 7.28349 92.89636 35877 ft 458 kts 295°
2026-04-24 05:11 7.30948 92.83777 35875 ft 458 kts 295°
2026-04-24 05:11 7.33527 92.77958 35873 ft 458 kts 295°
2026-04-24 05:12 7.36124 92.72104 35876 ft 458 kts 295°
2026-04-24 05:12 7.38729 92.66244 35872 ft 458 kts 295°
2026-04-24 05:13 7.42635 92.57454 35879 ft 458 kts 295°
2026-04-24 05:14 7.45237 92.51594 35877 ft 458 kts 295°
2026-04-24 05:14 7.47834 92.45722 35878 ft 459 kts 295°
2026-04-24 05:15 7.50011 92.40805 35881 ft 459 kts 295°
2026-04-24 05:15 7.52609 92.34940 35882 ft 459 kts 295°
2026-04-24 05:16 7.55210 92.29068 35880 ft 459 kts 295°
2026-04-24 05:16 7.57819 92.23202 35878 ft 459 kts 295°
2026-04-24 05:17 7.60415 92.17329 35878 ft 459 kts 294°
2026-04-24 05:17 7.63002 92.11450 35880 ft 459 kts 294°
2026-04-24 05:18 7.65600 92.05576 35883 ft 459 kts 295°
2026-04-24 05:18 7.68184 91.99743 35884 ft 459 kts 294°
2026-04-24 05:19 7.70776 91.93870 35883 ft 459 kts 294°
2026-04-24 05:19 7.73364 91.87996 35883 ft 458 kts 294°
2026-04-24 05:20 7.75956 91.82126 35890 ft 458 kts 294°
2026-04-24 05:20 7.78545 91.76253 35890 ft 458 kts 294°
2026-04-24 05:21 7.81135 91.70392 35889 ft 458 kts 294°
2026-04-24 05:21 7.83741 91.64529 35889 ft 458 kts 295°
2026-04-24 05:22 7.86407 91.58701 35888 ft 458 kts 295°
2026-04-24 05:22 7.89091 91.52886 35886 ft 458 kts 295°
2026-04-24 05:23 7.91763 91.47055 35888 ft 458 kts 295°
2026-04-24 05:23 7.94428 91.41225 35887 ft 458 kts 295°
2026-04-24 05:24 7.97091 91.35393 35890 ft 458 kts 295°
2026-04-24 05:24 7.99748 91.29560 35889 ft 458 kts 295°
2026-04-24 05:25 8.02411 91.23728 35889 ft 458 kts 295°
2026-04-24 05:25 8.05067 91.17890 35890 ft 458 kts 295°
2026-04-24 05:26 8.07727 91.12056 35889 ft 458 kts 295°
2026-04-24 05:26 8.10394 91.06225 35893 ft 458 kts 295°
2026-04-24 05:27 8.13054 91.00389 35894 ft 458 kts 295°
2026-04-24 05:27 8.15703 90.94548 35894 ft 458 kts 295°
2026-04-24 05:28 8.18355 90.88709 35890 ft 457 kts 295°
2026-04-24 05:28 8.21009 90.82873 35890 ft 458 kts 295°
2026-04-24 05:29 8.23663 90.77036 35888 ft 458 kts 295°
2026-04-24 05:29 8.26318 90.71196 35890 ft 458 kts 295°
2026-04-24 05:30 8.28970 90.65358 35890 ft 458 kts 295°
2026-04-24 05:30 8.31626 90.59514 35888 ft 458 kts 295°
2026-04-24 05:31 8.34261 90.53707 35887 ft 458 kts 295°
2026-04-24 05:31 8.36905 90.47862 35896 ft 458 kts 294°
2026-04-24 05:32 8.39551 90.42020 35898 ft 457 kts 295°
2026-04-24 05:32 8.42217 90.36142 35895 ft 457 kts 294°
2026-04-24 05:33 8.44844 90.30336 35891 ft 458 kts 294°
2026-04-24 05:33 8.47484 90.24490 35891 ft 458 kts 294°
2026-04-24 05:34 8.51473 90.15668 35889 ft 458 kts 294°
2026-04-24 05:34 8.54107 90.09859 35890 ft 458 kts 294°
2026-04-24 05:35 8.56754 90.04002 35893 ft 458 kts 294°
2026-04-24 05:35 8.59394 89.98148 35891 ft 458 kts 294°
2026-04-24 05:36 8.62036 89.92296 35895 ft 457 kts 294°
2026-04-24 05:36 8.64676 89.86454 35896 ft 457 kts 294°
2026-04-24 05:37 8.67311 89.80607 35896 ft 457 kts 294°
2026-04-24 05:37 8.69940 89.74760 35895 ft 457 kts 294°
2026-04-24 05:38 8.72577 89.68919 35898 ft 457 kts 294°
2026-04-24 05:38 8.75220 89.63080 35899 ft 457 kts 294°
2026-04-24 05:39 8.77851 89.57234 35898 ft 456 kts 294°
2026-04-24 05:39 8.80476 89.51401 35900 ft 456 kts 294°
2026-04-24 05:40 8.83099 89.45567 35897 ft 455 kts 294°
2026-04-24 05:40 8.85710 89.39739 35895 ft 455 kts 294°
2026-04-24 05:41 8.88326 89.33913 35892 ft 455 kts 294°
2026-04-24 05:41 8.90947 89.28084 35891 ft 455 kts 294°
2026-04-24 05:42 8.93564 89.22262 35890 ft 455 kts 294°
2026-04-24 05:42 8.96174 89.16435 35892 ft 455 kts 294°
2026-04-24 05:43 8.98784 89.10611 35892 ft 455 kts 294°
2026-04-24 05:43 9.01396 89.04783 35892 ft 455 kts 294°
2026-04-24 05:44 9.04009 88.98954 35895 ft 455 kts 294°
2026-04-24 05:44 9.06617 88.93125 35895 ft 454 kts 294°
2026-04-24 05:45 9.09224 88.87304 35894 ft 454 kts 294°
2026-04-24 05:45 9.11824 88.81484 35900 ft 453 kts 293°
2026-04-24 05:46 9.14421 88.75673 35898 ft 453 kts 293°
2026-04-24 05:46 9.17016 88.69870 35901 ft 452 kts 293°
2026-04-24 05:47 9.19610 88.64073 35900 ft 452 kts 293°
2026-04-24 05:47 9.22176 88.58312 35897 ft 452 kts 293°
2026-04-24 05:48 9.24778 88.52488 35892 ft 451 kts 293°
2026-04-24 05:48 9.27349 88.46733 35893 ft 452 kts 293°
2026-04-24 05:49 9.29935 88.40934 35898 ft 452 kts 293°
2026-04-24 05:49 9.32517 88.35137 35901 ft 451 kts 293°
2026-04-24 05:50 9.35088 88.29345 35904 ft 451 kts 293°
2026-04-24 05:50 9.37661 88.23552 35903 ft 451 kts 293°
2026-04-24 05:51 9.40237 88.17767 35900 ft 451 kts 293°
2026-04-24 05:51 9.42816 88.11984 35901 ft 450 kts 293°
2026-04-24 05:52 9.45385 88.06203 35894 ft 450 kts 292°
2026-04-24 05:52 9.47950 88.00426 35901 ft 449 kts 292°
2026-04-24 05:53 9.50512 87.94657 35902 ft 449 kts 292°
2026-04-24 05:53 9.53067 87.88888 35902 ft 448 kts 292°
2026-04-24 05:54 9.55616 87.83126 35899 ft 448 kts 292°
2026-04-24 05:54 9.58172 87.77366 35900 ft 448 kts 292°
2026-04-24 05:55 9.60728 87.71612 35898 ft 448 kts 292°
2026-04-24 05:55 9.63278 87.65854 35898 ft 448 kts 292°
2026-04-24 05:56 9.65826 87.60101 35893 ft 447 kts 292°
2026-04-24 05:56 9.68367 87.54353 35891 ft 447 kts 292°
2026-04-24 05:57 9.70905 87.48602 35886 ft 447 kts 292°
2026-04-24 05:57 9.73437 87.42857 35884 ft 447 kts 292°
2026-04-24 05:58 9.75974 87.37109 35886 ft 447 kts 292°
2026-04-24 05:58 9.78531 87.31360 35892 ft 447 kts 293°
2026-04-24 05:59 9.80721 87.26614 35900 ft 447 kts 293°
2026-04-24 05:59 9.83360 87.20927 35899 ft 445 kts 293°
2026-04-24 06:00 9.85980 87.15237 35900 ft 445 kts 292°
2026-04-24 06:00 9.88579 87.09553 35902 ft 444 kts 292°
2026-04-24 06:01 9.91182 87.03876 35900 ft 444 kts 292°
2026-04-24 06:01 9.93782 86.98191 35897 ft 444 kts 292°
2026-04-24 06:02 9.96375 86.92511 35894 ft 444 kts 292°
2026-04-24 06:02 9.98969 86.86827 35890 ft 444 kts 292°
2026-04-24 06:03 10.01569 86.81139 35888 ft 444 kts 292°
2026-04-24 06:03 10.04164 86.75457 35885 ft 444 kts 292°
2026-04-24 06:04 10.06757 86.69769 35885 ft 444 kts 292°
2026-04-24 06:04 10.09354 86.64078 35886 ft 444 kts 292°
2026-04-24 06:05 10.11934 86.58428 35888 ft 444 kts 292°
2026-04-24 06:05 10.14526 86.52734 35888 ft 444 kts 292°
2026-04-24 06:06 10.17121 86.47037 35885 ft 445 kts 292°
2026-04-24 06:06 10.19711 86.41339 35886 ft 445 kts 292°
2026-04-24 06:07 10.22295 86.35637 35894 ft 444 kts 292°
2026-04-24 06:07 10.24881 86.29939 35892 ft 444 kts 292°
2026-04-24 06:08 10.27474 86.24248 35893 ft 444 kts 292°
2026-04-24 06:08 10.30065 86.18563 35895 ft 444 kts 292°
2026-04-24 06:09 10.32646 86.12869 35891 ft 444 kts 292°
2026-04-24 06:09 10.35222 86.07173 35890 ft 444 kts 292°
2026-04-24 06:10 10.37802 86.01478 35887 ft 444 kts 292°
2026-04-24 06:11 10.41669 85.92944 35882 ft 444 kts 292°
2026-04-24 06:11 10.44250 85.87252 35880 ft 443 kts 292°
2026-04-24 06:12 10.46821 85.81557 35878 ft 443 kts 292°
2026-04-24 06:12 10.49391 85.75863 35877 ft 443 kts 292°
2026-04-24 06:13 10.51965 85.70172 35878 ft 443 kts 292°
2026-04-24 06:13 10.54533 85.64481 35877 ft 443 kts 292°
2026-04-24 06:14 10.57103 85.58794 35880 ft 442 kts 291°
2026-04-24 06:14 10.59672 85.53113 35880 ft 442 kts 291°
2026-04-24 06:15 10.62226 85.47435 35880 ft 442 kts 291°
2026-04-24 06:15 10.64782 85.41758 35883 ft 442 kts 291°
2026-04-24 06:16 10.67342 85.36073 35382 ft 442 kts 291°
2026-04-24 06:16 10.68619 85.33245 34871 ft 438 kts 291°
2026-04-24 06:16 10.69886 85.30436 34389 ft 435 kts 291°
2026-04-24 06:16 10.71136 85.27653 33992 ft 430 kts 291°
2026-04-24 06:17 10.72374 85.24894 33837 ft 428 kts 291°
2026-04-24 06:17 10.74848 85.19376 33869 ft 429 kts 291°
2026-04-24 06:18 10.77327 85.13849 33868 ft 430 kts 291°
2026-04-24 06:18 10.79817 85.08323 33869 ft 430 kts 291°
2026-04-24 06:19 10.82304 85.02798 33869 ft 429 kts 291°
2026-04-24 06:19 10.84785 84.97277 33873 ft 429 kts 291°
2026-04-24 06:20 10.87266 84.91747 33870 ft 430 kts 291°
2026-04-24 06:20 10.89739 84.86213 33872 ft 429 kts 291°
2026-04-24 06:21 10.92211 84.80691 33874 ft 429 kts 291°
2026-04-24 06:21 10.94665 84.75212 33859 ft 428 kts 291°
2026-04-24 06:22 10.97124 84.69690 33867 ft 428 kts 291°
2026-04-24 06:22 10.99604 84.64135 33866 ft 428 kts 291°
2026-04-24 06:23 11.02076 84.58622 33866 ft 428 kts 291°
2026-04-24 06:23 11.04529 84.53140 33868 ft 428 kts 291°
2026-04-24 06:24 11.06992 84.47619 33864 ft 428 kts 291°
2026-04-24 06:24 11.09449 84.42099 33871 ft 428 kts 291°
2026-04-24 06:25 11.11919 84.36578 33865 ft 428 kts 291°
2026-04-24 06:25 11.14375 84.31058 33861 ft 428 kts 291°
2026-04-24 06:26 11.16831 84.25545 33869 ft 427 kts 291°
2026-04-24 06:26 11.19281 84.20032 33868 ft 427 kts 291°
2026-04-24 06:27 11.21728 84.14523 33861 ft 427 kts 291°
2026-04-24 06:27 11.24178 84.09015 33864 ft 427 kts 291°
2026-04-24 06:28 11.26628 84.03505 33859 ft 426 kts 290°
2026-04-24 06:28 11.29064 83.98002 33864 ft 426 kts 290°
2026-04-24 06:29 11.31505 83.92505 33868 ft 426 kts 290°
2026-04-24 06:29 11.33948 83.87005 33867 ft 427 kts 290°
2026-04-24 06:30 11.36391 83.81492 33862 ft 427 kts 290°
2026-04-24 06:30 11.38832 83.75974 33868 ft 427 kts 290°
2026-04-24 06:31 11.41277 83.70461 33862 ft 427 kts 290°
2026-04-24 06:31 11.43716 83.64943 33861 ft 427 kts 290°
2026-04-24 06:32 11.46159 83.59419 33867 ft 427 kts 290°
2026-04-24 06:32 11.48599 83.53896 33863 ft 427 kts 290°
2026-04-24 06:33 11.51043 83.48379 33864 ft 426 kts 290°
2026-04-24 06:33 11.53474 83.42867 33862 ft 426 kts 290°
2026-04-24 06:34 11.55899 83.37350 33860 ft 426 kts 290°
2026-04-24 06:34 11.58363 83.31848 33856 ft 428 kts 295°
2026-04-24 06:35 11.61882 83.26882 33857 ft 433 kts 303°
2026-04-24 06:35 11.65570 83.22016 33859 ft 433 kts 303°
2026-04-24 06:36 11.69255 83.17153 33859 ft 433 kts 303°
2026-04-24 06:36 11.72917 83.12271 33860 ft 433 kts 303°
2026-04-24 06:37 11.76566 83.07392 33858 ft 433 kts 303°
2026-04-24 06:37 11.80220 83.02514 33861 ft 432 kts 303°
2026-04-24 06:38 11.83869 82.97634 33860 ft 432 kts 303°
2026-04-24 06:38 11.87518 82.92756 33860 ft 432 kts 303°
2026-04-24 06:39 11.91173 82.87881 33860 ft 432 kts 303°
2026-04-24 06:39 11.94824 82.83002 33860 ft 432 kts 303°
2026-04-24 06:40 11.98473 82.78120 33861 ft 432 kts 303°
2026-04-24 06:40 12.02105 82.73246 33860 ft 431 kts 302°
2026-04-24 06:41 12.05741 82.68376 33859 ft 431 kts 303°
2026-04-24 06:41 12.09375 82.63508 33857 ft 431 kts 302°
2026-04-24 06:42 12.13018 82.58618 33216 ft 433 kts 303°
2026-04-24 06:42 12.14843 82.56173 32614 ft 432 kts 303°
2026-04-24 06:42 12.16668 82.53731 32023 ft 432 kts 304°
2026-04-24 06:42 12.18494 82.51283 31356 ft 434 kts 304°
2026-04-24 06:43 12.20313 82.48842 30689 ft 429 kts 305°
2026-04-24 06:43 12.22101 82.46443 30049 ft 420 kts 306°
2026-04-24 06:43 12.23267 82.44877 29574 ft 415 kts 306°
2026-04-24 06:43 12.25003 82.42546 28839 ft 409 kts 306°
2026-04-24 06:44 12.26713 82.40246 28126 ft 403 kts 306°
2026-04-24 06:44 12.28401 82.37975 27412 ft 398 kts 306°
2026-04-24 06:44 12.30068 82.35734 26679 ft 394 kts 306°
2026-04-24 06:44 12.31714 82.33522 25969 ft 389 kts 306°
2026-04-24 06:45 12.33345 82.31330 25273 ft 385 kts 306°
2026-04-24 06:45 12.34957 82.29162 24594 ft 381 kts 306°
2026-04-24 06:45 12.36547 82.27022 23931 ft 376 kts 306°
2026-04-24 06:45 12.38117 82.24906 23237 ft 371 kts 306°
2026-04-24 06:46 12.39674 82.22809 22417 ft 368 kts 307°
2026-04-24 06:46 12.41216 82.20735 21726 ft 364 kts 307°
2026-04-24 06:46 12.42735 82.18696 21333 ft 359 kts 308°
2026-04-24 06:46 12.44235 82.16677 20949 ft 354 kts 308°
2026-04-24 06:47 12.45726 82.14667 20840 ft 355 kts 308°
2026-04-24 06:47 12.47217 82.12656 20856 ft 356 kts 308°
2026-04-24 06:47 12.48705 82.10646 20855 ft 351 kts 307°
2026-04-24 06:47 12.50176 82.08665 20857 ft 348 kts 308°
2026-04-24 06:48 12.51639 82.06700 20854 ft 347 kts 308°
2026-04-24 06:48 12.53098 82.04734 20854 ft 347 kts 307°
2026-04-24 06:48 12.54553 82.02764 20854 ft 347 kts 306°
2026-04-24 06:48 12.55741 82.00617 20854 ft 348 kts 290°
2026-04-24 06:49 12.56365 81.98226 20857 ft 349 kts 282°
2026-04-24 06:49 12.56870 81.95790 20855 ft 350 kts 282°
2026-04-24 06:49 12.57382 81.93360 20855 ft 349 kts 282°
2026-04-24 06:49 12.57899 81.90932 20854 ft 349 kts 282°
2026-04-24 06:50 12.58418 81.88503 20854 ft 348 kts 282°
2026-04-24 06:50 12.58933 81.86077 20855 ft 349 kts 282°
2026-04-24 06:50 12.59446 81.83654 20853 ft 348 kts 282°
2026-04-24 06:50 12.59958 81.81228 20855 ft 349 kts 282°
2026-04-24 06:51 12.60468 81.78803 20853 ft 349 kts 282°
2026-04-24 06:51 12.60978 81.76371 20854 ft 350 kts 282°
2026-04-24 06:51 12.61486 81.73935 20855 ft 350 kts 282°
2026-04-24 06:51 12.61996 81.71503 20854 ft 349 kts 282°
2026-04-24 06:52 12.62506 81.69075 20856 ft 349 kts 282°
2026-04-24 06:52 12.63016 81.66644 20609 ft 352 kts 282°
2026-04-24 06:52 12.63532 81.64192 20006 ft 350 kts 282°
2026-04-24 06:52 12.64047 81.61746 19058 ft 357 kts 282°
2026-04-24 06:53 12.64573 81.59236 18276 ft 359 kts 282°
2026-04-24 06:53 12.65094 81.56753 17601 ft 355 kts 282°
2026-04-24 06:53 12.65613 81.54290 16849 ft 353 kts 283°
2026-04-24 06:53 12.66130 81.51838 16112 ft 351 kts 283°
2026-04-24 06:54 12.66644 81.49399 15397 ft 349 kts 283°
2026-04-24 06:54 12.67153 81.46978 14727 ft 346 kts 283°
2026-04-24 06:54 12.67651 81.44595 14223 ft 338 kts 283°
2026-04-24 06:54 12.68137 81.42267 13799 ft 330 kts 284°
2026-04-24 06:55 12.68611 81.39999 13325 ft 322 kts 284°
2026-04-24 06:55 12.69077 81.37774 12701 ft 319 kts 284°
2026-04-24 06:55 12.69541 81.35557 12062 ft 318 kts 284°
2026-04-24 06:55 12.70001 81.33352 11436 ft 316 kts 284°
2026-04-24 06:56 12.70447 81.31206 11026 ft 307 kts 284°
2026-04-24 06:56 12.70887 81.29085 10586 ft 303 kts 284°
2026-04-24 06:56 12.71323 81.26987 10112 ft 300 kts 284°
2026-04-24 06:56 12.71759 81.24903 9607 ft 298 kts 284°
2026-04-24 06:57 12.72198 81.22815 9086 ft 302 kts 284°
2026-04-24 06:57 12.72643 81.20695 8574 ft 307 kts 283°
2026-04-24 06:57 12.73093 81.18533 8164 ft 306 kts 283°
2026-04-24 06:57 12.73534 81.16410 7878 ft 301 kts 283°
2026-04-24 06:58 12.73963 81.14350 7847 ft 294 kts 283°
2026-04-24 06:58 12.74390 81.12293 7826 ft 297 kts 283°
2026-04-24 06:58 12.74820 81.10221 7559 ft 296 kts 283°
2026-04-24 06:58 12.75250 81.08152 7060 ft 297 kts 283°
2026-04-24 06:59 12.75677 81.06102 6578 ft 290 kts 282°
2026-04-24 06:59 12.76092 81.04106 6455 ft 294 kts 282°
2026-04-24 06:59 12.76523 81.02031 6341 ft 299 kts 282°
2026-04-24 06:59 12.76954 80.99949 6223 ft 299 kts 282°
2026-04-24 07:00 12.77386 80.97861 6099 ft 300 kts 282°
2026-04-24 07:00 12.77818 80.95774 5981 ft 299 kts 281°
2026-04-24 07:00 12.78250 80.93696 5859 ft 297 kts 281°
2026-04-24 07:00 12.78680 80.91633 5737 ft 296 kts 281°
2026-04-24 07:01 12.79108 80.89573 5628 ft 295 kts 281°
2026-04-24 07:01 12.79532 80.87523 5491 ft 293 kts 281°
2026-04-24 07:01 12.79953 80.85487 5373 ft 292 kts 281°
2026-04-24 07:01 12.80377 80.83453 5257 ft 291 kts 282°
2026-04-24 07:02 12.81057 80.81508 5132 ft 290 kts 296°
2026-04-24 07:02 12.81955 80.79654 5016 ft 290 kts 295°
2026-04-24 07:02 12.82850 80.77799 4897 ft 289 kts 295°
2026-04-24 07:02 12.83734 80.75959 4779 ft 287 kts 295°
2026-04-24 07:03 12.84614 80.74120 4662 ft 288 kts 295°
2026-04-24 07:03 12.85493 80.72280 4541 ft 287 kts 295°
2026-04-24 07:03 12.86372 80.70448 4316 ft 285 kts 295°
2026-04-24 07:03 12.87247 80.68626 4036 ft 284 kts 295°
2026-04-24 07:04 12.88109 80.66826 3912 ft 278 kts 294°
2026-04-24 07:04 12.88967 80.65031 3918 ft 283 kts 295°
2026-04-24 07:04 12.89828 80.63231 3702 ft 279 kts 294°
2026-04-24 07:04 12.90680 80.61453 3454 ft 277 kts 294°
2026-04-24 07:05 12.91515 80.59707 3180 ft 275 kts 294°
2026-04-24 07:05 12.92354 80.57959 2911 ft 271 kts 294°
2026-04-24 07:05 12.93198 80.56203 2705 ft 271 kts 294°
2026-04-24 07:05 12.94030 80.54466 2540 ft 271 kts 294°
2026-04-24 07:06 12.94846 80.52758 2394 ft 270 kts 293°
2026-04-24 07:06 12.95656 80.51065 2304 ft 257 kts 295°
2026-04-24 07:06 12.96603 80.49582 2301 ft 243 kts 306°
2026-04-24 07:06 12.97671 80.48294 2304 ft 235 kts 308°
2026-04-24 07:07 12.98743 80.47037 2302 ft 234 kts 308°
2026-04-24 07:07 12.99822 80.45788 2298 ft 234 kts 309°
2026-04-24 07:07 13.01432 80.43002 2298 ft 225 kts 281°
2026-04-24 07:08 13.01809 80.41475 2297 ft 219 kts 279°
2026-04-24 07:08 13.02150 80.39960 2295 ft 217 kts 278°
2026-04-24 07:08 13.02485 80.38472 2291 ft 209 kts 278°
2026-04-24 07:08 13.02807 80.37064 2326 ft 199 kts 279°
2026-04-24 07:09 13.03097 80.35694 2292 ft 195 kts 278°
2026-04-24 07:09 13.03391 80.34332 2137 ft 196 kts 278°
2026-04-24 07:09 13.03689 80.32948 1801 ft 198 kts 279°
2026-04-24 07:09 13.03969 80.31582 1788 ft 196 kts 277°
2026-04-24 07:10 13.03985 80.30219 1782 ft 189 kts 252°
2026-04-24 07:10 13.03571 80.29028 1782 ft 162 kts 243°
2026-04-24 07:10 13.03185 80.28000 1773 ft 151 kts 245°
2026-04-24 07:10 13.02812 80.27011 1674 ft 147 kts 245°
2026-04-24 07:11 13.02442 80.26027 1516 ft 144 kts 244°
2026-04-24 07:11 13.02082 80.25069 1335 ft 144 kts 244°
2026-04-24 07:11 13.01722 80.24109 1168 ft 145 kts 245°
2026-04-24 07:11 13.01358 80.23142 973 ft 146 kts 246°
2026-04-24 07:12 13.00995 80.22172 804 ft 145 kts 246°
2026-04-24 07:12 13.00634 80.21210 647 ft 144 kts 245°
2026-04-24 07:12 13.00273 80.20249 462 ft 143 kts 242°
2026-04-24 07:12 12.99918 80.19301 294 ft 143 kts 244°
2026-04-24 07:13 12.99559 80.18345 105 ft 144 kts 244°
2026-04-24 07:13 12.99237 80.17492 54 ft 97 kts 249°
2026-04-24 07:13 12.99029 80.16935 52 ft 73 kts 249°
2026-04-24 07:13 12.98866 80.16513 54 ft 37 kts 247°
2026-04-24 07:14 12.98779 80.16386 50 ft 11 kts 223°
2026-04-24 07:14 12.98759 80.16370 51 ft 0 kts 208°
2026-04-24 07:14 12.98753 80.16366 50 ft 1 kts 213°
2026-04-24 07:14 12.98733 80.16351 55 ft 11 kts 218°
2026-04-24 07:15 12.98711 80.16332 52 ft 0 kts 219°
2026-04-24 07:16 12.98687 80.16313 48 ft 10 kts 218°
2026-04-24 07:16 12.98625 80.16263 52 ft 12 kts 218°
2026-04-24 07:17 12.98575 80.16225 54 ft 0 kts 216°
2026-04-24 07:17 12.98573 80.16224 55 ft 2 kts 216°
2026-04-24 07:17 12.98556 80.16196 55 ft 5 kts 242°
2026-04-24 07:18 12.98542 80.16163 52 ft 7 kts 247°
2026-04-24 07:18 12.98512 80.16134 55 ft 5 kts 197°
2026-04-24 07:18 12.98479 80.16139 51 ft 5 kts 161°
2026-04-24 07:18 12.98445 80.16152 54 ft 6 kts 160°
2026-04-24 07:19 12.98406 80.16167 54 ft 7 kts 159°
2026-04-24 07:19 12.98387 80.16207 55 ft 7 kts 73°
2026-04-24 07:19 12.98401 80.16247 54 ft 5 kts 69°
2026-04-24 07:19 12.98414 80.16280 55 ft 4 kts 69°
2026-04-24 07:20 12.98423 80.16305 55 ft 3 kts 71°
2026-04-24 07:20 12.98430 80.16325 52 ft 2 kts 70°
2026-04-24 07:20 12.98439 80.16349 52 ft 3 kts 69°
2026-04-24 07:20 12.98446 80.16370 54 ft 3 kts 69°
2026-04-24 07:21 12.98452 80.16387 53 ft 5 kts 72°
2026-04-24 07:21 12.98460 80.16412 51 ft 5 kts 70°
2026-04-24 07:21 12.98472 80.16444 55 ft 4 kts 70°
2026-04-24 07:21 12.98467 80.16472 55 ft 2 kts 131°
2026-04-24 07:22 12.98461 80.16475 55 ft 1 kts 152°
2026-04-24 07:22 12.98456 80.16478 51 ft 1 kts 153°
2026-04-24 07:22 12.98434 80.16487 55 ft 4 kts 158°
2026-04-24 07:22 12.98418 80.16493 53 ft 0 kts 162°